Time,TemperatureF,DewpointF,PressureIn,WindDirection,WindDirectionDegrees,WindSpeedMPH,WindSpeedGustMPH,Humidity,HourlyPrecipIn,Conditions,Clouds,dailyrainin,SoftwareType,DateUTC
2013-05-21 00:01:00,61.3,59.3,29.71,ENE,68,0.0,0.0,93,0.00,,---,0.00,VWS V14.01,2013-05-21 04:01:00,
2013-05-21 00:06:00,61.5,59.5,29.71,ENE,68,0.0,0.0,93,0.00,,---,0.00,VWS V14.01,2013-05-21 04:06:00,
2013-05-21 00:11:00,61.5,59.8,29.71,ENE,68,0.0,0.0,94,0.00,,---,0.00,VWS V14.01,2013-05-21 04:11:00,
2013-05-21 00:16:00,61.3,59.6,29.71,ENE,68,0.0,0.0,94,0.00,,---,0.00,VWS V14.01,2013-05-21 04:16:00,
2013-05-21 00:21:00,61.3,59.6,29.71,ENE,68,0.0,0.0,94,0.00,,---,0.00,VWS V14.01,2013-05-21 04:21:00,
2013-05-21 00:26:00,61.2,59.4,29.71,ENE,68,0.0,0.0,94,0.00,,---,0.00,VWS V14.01,2013-05-21 04:26:00,
2013-05-21 00:31:00,61.2,59.4,29.71,ENE,68,0.0,0.0,94,0.00,,---,0.00,VWS V14.01,2013-05-21 04:31:00,
2013-05-21 00:36:00,61.3,59.9,29.71,ENE,68,0.0,0.0,95,0.00,,---,0.00,VWS V14.01,2013-05-21 04:36:00,
2013-05-21 00:41:00,61.2,59.7,29.71,ENE,68,0.0,0.0,95,0.00,,---,0.00,VWS V14.01,2013-05-21 04:41:00,
2013-05-21 00:46:00,61.2,59.7,29.71,ENE,68,0.0,0.0,95,0.00,,---,0.00,VWS V14.01,2013-05-21 04:46:00,
2013-05-21 00:51:00,61.0,59.5,29.71,ENE,68,0.0,0.0,95,0.00,,---,0.00,VWS V14.01,2013-05-21 04:51:00,
2013-05-21 00:56:00,61.0,59.5,29.68,ENE,68,0.0,0.0,95,0.00,,---,0.00,VWS V14.01,2013-05-21 04:56:00,
2013-05-21 01:00:00,60.8,59.1,29.68,ENE,68,0.0,0.0,94,0.00,,---,0.00,VWS V14.01,2013-05-21 05:00:00,
2013-05-21 01:05:00,60.4,59.0,29.68,ENE,68,0.0,0.0,95,0.00,,---,0.00,VWS V14.01,2013-05-21 05:05:00,
2013-05-21 01:10:00,60.3,58.8,29.68,ENE,68,0.0,0.0,95,0.00,,---,0.00,VWS V14.01,2013-05-21 05:10:00,
2013-05-21 01:15:00,60.1,58.3,29.68,ENE,68,0.0,0.0,94,0.00,,---,0.00,VWS V14.01,2013-05-21 05:15:00,
2013-05-21 01:20:00,60.1,58.7,29.68,ENE,68,0.0,0.0,95,0.00,,---,0.00,VWS V14.01,2013-05-21 05:20:00,
2013-05-21 01:25:00,59.9,58.5,29.68,ENE,68,0.0,0.0,95,0.00,,---,0.00,VWS V14.01,2013-05-21 05:25:00,
2013-05-21 01:30:00,59.9,58.5,29.68,ENE,68,0.0,0.0,95,0.00,,---,0.00,VWS V14.01,2013-05-21 05:30:00,
2013-05-21 01:35:00,59.7,58.3,29.68,ENE,68,0.0,0.0,95,0.00,,---,0.00,VWS V14.01,2013-05-21 05:35:00,
2013-05-21 01:40:00,59.7,58.3,29.68,ENE,68,0.0,0.0,95,0.00,,---,0.00,VWS V14.01,2013-05-21 05:40:00,
2013-05-21 01:45:00,59.7,58.3,29.68,ENE,68,0.0,0.0,95,0.00,,---,0.00,VWS V14.01,2013-05-21 05:45:00,
2013-05-21 01:50:00,59.7,58.3,29.68,ENE,68,0.0,0.0,95,0.00,,---,0.00,VWS V14.01,2013-05-21 05:50:00,
2013-05-21 01:55:00,59.5,58.1,29.68,ENE,68,0.0,0.0,95,0.00,,---,0.00,VWS V14.01,2013-05-21 05:55:00,
2013-05-21 02:00:00,59.5,58.1,29.68,ENE,68,0.0,0.0,95,0.00,,---,0.00,VWS V14.01,2013-05-21 06:00:00,
2013-05-21 02:05:00,59.4,57.9,29.68,ENE,68,0.0,0.0,95,0.00,,---,0.00,VWS V14.01,2013-05-21 06:05:00,
2013-05-21 02:10:00,59.4,57.9,29.68,ENE,68,0.0,0.0,95,0.00,,---,0.00,VWS V14.01,2013-05-21 06:10:00,
2013-05-21 02:15:00,59.2,57.8,29.68,ENE,68,0.0,0.9,95,0.00,,---,0.00,VWS V14.01,2013-05-21 06:15:00,
2013-05-21 02:20:00,59.4,58.2,29.68,ENE,68,0.0,0.0,96,0.00,,---,0.00,VWS V14.01,2013-05-21 06:20:00,
2013-05-21 02:25:00,59.2,57.8,29.65,ENE,68,0.0,0.0,95,0.00,,---,0.00,VWS V14.01,2013-05-21 06:25:00,
2013-05-21 02:30:00,59.2,57.8,29.65,ENE,68,0.0,0.0,95,0.00,,---,0.00,VWS V14.01,2013-05-21 06:30:00,
2013-05-21 02:35:00,59.2,58.0,29.65,ENE,68,0.0,0.0,96,0.00,,---,0.00,VWS V14.01,2013-05-21 06:35:00,
2013-05-21 02:40:00,59.2,58.0,29.65,ENE,68,0.0,0.0,96,0.00,,---,0.00,VWS V14.01,2013-05-21 06:40:00,
2013-05-21 02:45:00,59.4,58.2,29.65,ENE,68,0.0,0.0,96,0.00,,---,0.00,VWS V14.01,2013-05-21 06:45:00,
2013-05-21 02:50:00,59.5,58.4,29.65,ENE,68,0.0,0.0,96,0.00,,---,0.00,VWS V14.01,2013-05-21 06:50:00,
2013-05-21 02:55:00,59.5,58.4,29.68,ENE,68,0.0,0.0,96,0.00,,---,0.00,VWS V14.01,2013-05-21 06:55:00,
2013-05-21 03:00:00,59.5,58.4,29.68,ENE,68,0.0,0.0,96,0.00,,---,0.00,VWS V14.01,2013-05-21 07:00:00,
2013-05-21 03:05:00,59.7,58.6,29.68,ENE,68,0.0,0.0,96,0.00,,---,0.00,VWS V14.01,2013-05-21 07:05:00,
2013-05-21 03:10:00,59.7,58.6,29.68,ENE,68,0.0,0.0,96,0.00,,---,0.00,VWS V14.01,2013-05-21 07:10:00,
2013-05-21 03:15:00,59.7,58.6,29.68,ENE,68,0.0,0.0,96,0.00,,---,0.00,VWS V14.01,2013-05-21 07:15:00,
2013-05-21 03:20:00,59.7,58.6,29.68,ENE,68,0.0,0.0,96,0.00,,---,0.00,VWS V14.01,2013-05-21 07:20:00,
2013-05-21 03:25:00,59.9,58.8,29.68,ENE,68,0.0,0.0,96,0.00,,---,0.00,VWS V14.01,2013-05-21 07:25:00,
2013-05-21 03:30:00,59.9,58.8,29.68,ENE,68,0.0,0.0,96,0.00,,---,0.00,VWS V14.01,2013-05-21 07:30:00,
2013-05-21 03:35:00,59.9,58.8,29.68,ENE,68,0.0,0.0,96,0.00,,---,0.00,VWS V14.01,2013-05-21 07:35:00,
2013-05-21 03:40:00,59.9,58.8,29.68,ENE,68,0.0,0.0,96,0.00,,---,0.00,VWS V14.01,2013-05-21 07:40:00,
2013-05-21 03:45:00,59.7,58.6,29.68,ENE,68,0.0,0.0,96,0.00,,---,0.00,VWS V14.01,2013-05-21 07:45:00,
2013-05-21 03:50:00,59.7,58.6,29.68,ENE,68,0.0,0.0,96,0.00,,---,0.00,VWS V14.01,2013-05-21 07:50:00,
2013-05-21 03:55:00,59.5,58.4,29.68,ENE,68,0.0,0.0,96,0.00,,---,0.00,VWS V14.01,2013-05-21 07:55:00,
2013-05-21 04:00:00,59.4,58.2,29.68,ENE,68,0.0,0.0,96,0.00,,---,0.00,VWS V14.01,2013-05-21 08:00:00,
2013-05-21 04:05:00,59.4,58.2,29.68,ENE,68,0.0,0.0,96,0.00,,---,0.00,VWS V14.01,2013-05-21 08:05:00,
2013-05-21 04:10:00,59.2,58.0,29.68,ENE,68,0.0,0.0,96,0.00,,---,0.00,VWS V14.01,2013-05-21 08:10:00,
2013-05-21 04:15:00,59.2,58.0,29.68,ENE,68,0.0,0.0,96,0.00,,---,0.00,VWS V14.01,2013-05-21 08:15:00,
2013-05-21 04:20:00,59.2,58.0,29.68,ENE,68,0.0,0.0,96,0.00,,---,0.00,VWS V14.01,2013-05-21 08:20:00,
2013-05-21 04:25:00,59.0,57.9,29.68,ENE,68,0.0,0.0,96,0.00,,---,0.00,VWS V14.01,2013-05-21 08:25:00,
2013-05-21 04:30:00,59.0,57.9,29.68,ENE,68,0.0,0.0,96,0.00,,---,0.00,VWS V14.01,2013-05-21 08:30:00,
2013-05-21 04:35:00,59.0,57.9,29.68,ENE,68,0.0,0.0,96,0.00,,---,0.00,VWS V14.01,2013-05-21 08:35:00,
2013-05-21 04:40:00,59.0,57.9,29.68,ENE,68,0.0,0.0,96,0.00,,---,0.00,VWS V14.01,2013-05-21 08:40:00,
2013-05-21 04:45:00,59.2,58.0,29.68,ENE,68,0.0,0.0,96,0.00,,---,0.00,VWS V14.01,2013-05-21 08:45:00,
2013-05-21 04:50:00,59.2,58.0,29.68,ENE,68,0.0,0.0,96,0.00,,---,0.00,VWS V14.01,2013-05-21 08:50:00,
2013-05-21 04:55:00,59.4,58.5,29.65,ENE,68,0.0,0.0,97,0.00,,---,0.00,VWS V14.01,2013-05-21 08:55:00,
2013-05-21 05:00:00,59.4,58.5,29.65,ENE,68,0.0,0.0,97,0.00,,---,0.00,VWS V14.01,2013-05-21 09:00:00,
2013-05-21 05:05:00,59.4,58.5,29.65,ENE,68,0.0,0.0,97,0.00,,---,0.00,VWS V14.01,2013-05-21 09:05:00,
2013-05-21 05:10:00,59.4,58.5,29.68,ENE,68,0.9,0.9,97,0.00,,---,0.00,VWS V14.01,2013-05-21 09:10:00,
2013-05-21 05:15:00,59.4,58.5,29.68,ENE,68,0.0,0.9,97,0.00,,---,0.00,VWS V14.01,2013-05-21 09:15:00,
2013-05-21 05:20:00,59.4,58.5,29.68,East,90,0.9,1.1,97,0.00,,---,0.00,VWS V14.01,2013-05-21 09:20:00,
2013-05-21 05:25:00,59.4,58.5,29.68,NE,45,0.0,0.0,97,0.00,,---,0.00,VWS V14.01,2013-05-21 09:25:00,
2013-05-21 05:30:00,59.2,58.3,29.68,NE,45,0.0,0.0,97,0.00,,---,0.00,VWS V14.01,2013-05-21 09:30:00,
2013-05-21 05:35:00,59.2,58.3,29.68,NE,45,0.0,0.0,97,0.00,,---,0.00,VWS V14.01,2013-05-21 09:35:00,
2013-05-21 05:40:00,59.2,58.3,29.68,NE,45,0.0,1.1,97,0.00,,---,0.00,VWS V14.01,2013-05-21 09:40:00,
2013-05-21 05:45:00,59.0,58.2,29.68,NE,45,1.6,1.6,97,0.00,,---,0.00,VWS V14.01,2013-05-21 09:45:00,
2013-05-21 05:50:00,59.0,58.2,29.68,ENE,68,1.6,2.2,97,0.00,,---,0.00,VWS V14.01,2013-05-21 09:50:00,
2013-05-21 05:55:00,59.0,58.2,29.68,East,90,1.1,1.1,97,0.00,,---,0.00,VWS V14.01,2013-05-21 09:55:00,
2013-05-21 06:00:00,59.0,58.2,29.68,SE,135,0.0,0.0,97,0.00,,---,0.00,VWS V14.01,2013-05-21 10:00:00,
2013-05-21 06:05:00,58.8,58.3,29.68,East,90,2.2,2.7,98,0.00,,---,0.00,VWS V14.01,2013-05-21 10:05:00,
2013-05-21 06:10:00,58.8,58.3,29.68,East,90,1.1,1.1,98,0.00,,---,0.00,VWS V14.01,2013-05-21 10:10:00,
2013-05-21 06:15:00,58.8,58.3,29.68,West,270,1.1,1.6,98,0.00,,---,0.00,VWS V14.01,2013-05-21 10:15:00,
2013-05-21 06:20:00,58.8,58.3,29.68,East,90,0.9,1.3,98,0.00,,---,0.00,VWS V14.01,2013-05-21 10:20:00,
2013-05-21 06:25:00,58.6,58.1,29.71,East,90,0.9,0.9,98,0.00,,---,0.00,VWS V14.01,2013-05-21 10:25:00,
2013-05-21 06:30:00,58.6,57.8,29.71,East,90,1.1,1.1,97,0.00,,---,0.00,VWS V14.01,2013-05-21 10:30:00,
2013-05-21 06:35:00,58.5,57.6,29.71,East,90,0.0,0.0,97,0.00,,---,0.00,VWS V14.01,2013-05-21 10:35:00,
2013-05-21 06:40:00,58.5,57.6,29.71,East,90,0.0,0.0,97,0.00,,---,0.00,VWS V14.01,2013-05-21 10:40:00,
2013-05-21 06:45:00,58.6,57.8,29.71,East,90,0.0,0.0,97,0.00,,---,0.00,VWS V14.01,2013-05-21 10:45:00,
2013-05-21 06:50:00,58.6,57.8,29.71,East,90,0.9,0.9,97,0.00,,---,0.00,VWS V14.01,2013-05-21 10:50:00,
2013-05-21 06:55:00,58.6,57.8,29.68,SE,135,0.0,0.0,97,0.00,,---,0.00,VWS V14.01,2013-05-21 10:55:00,
2013-05-21 07:00:00,58.6,57.8,29.68,ESE,112,0.9,1.1,97,0.00,,---,0.00,VWS V14.01,2013-05-21 11:00:00,
2013-05-21 07:05:00,58.6,57.8,29.68,East,90,0.0,0.0,97,0.00,,---,0.00,VWS V14.01,2013-05-21 11:05:00,
2013-05-21 07:10:00,58.6,57.8,29.65,East,90,1.3,1.3,97,0.00,,---,0.00,VWS V14.01,2013-05-21 11:10:00,
2013-05-21 07:15:00,58.6,57.8,29.65,East,90,2.0,2.0,97,0.00,,---,0.00,VWS V14.01,2013-05-21 11:15:00,
2013-05-21 07:20:00,58.6,57.8,29.65,East,90,1.3,1.3,97,0.00,,---,0.00,VWS V14.01,2013-05-21 11:20:00,
2013-05-21 07:25:00,58.6,57.8,29.68,East,90,1.3,1.3,97,0.00,,---,0.00,VWS V14.01,2013-05-21 11:25:00,
2013-05-21 07:30:00,58.6,57.8,29.68,East,90,0.0,1.1,97,0.00,,---,0.00,VWS V14.01,2013-05-21 11:30:00,
2013-05-21 07:35:00,58.5,57.6,29.68,SSE,158,1.1,1.1,97,0.00,,---,0.00,VWS V14.01,2013-05-21 11:35:00,
2013-05-21 07:40:00,58.5,57.6,29.68,SW,225,0.0,1.1,97,0.00,,---,0.00,VWS V14.01,2013-05-21 11:40:00,
2013-05-21 07:45:00,58.6,57.8,29.68,East,90,2.0,2.0,97,0.00,,---,0.00,VWS V14.01,2013-05-21 11:45:00,
2013-05-21 07:50:00,58.8,58.0,29.68,East,90,0.0,2.0,97,0.00,,---,0.00,VWS V14.01,2013-05-21 11:50:00,
2013-05-21 07:55:00,59.0,58.2,29.65,NE,45,2.0,2.0,97,0.00,,---,0.00,VWS V14.01,2013-05-21 11:55:00,
2013-05-21 08:00:00,59.0,58.2,29.65,NE,45,1.6,1.6,97,0.00,,---,0.00,VWS V14.01,2013-05-21 12:00:00,
2013-05-21 08:05:00,59.2,58.0,29.65,NE,45,1.1,1.1,96,0.00,,---,0.00,VWS V14.01,2013-05-21 12:05:00,
2013-05-21 08:10:00,59.2,58.0,29.68,NE,45,0.0,0.0,96,0.00,,---,0.00,VWS V14.01,2013-05-21 12:10:00,
2013-05-21 08:15:00,59.4,58.2,29.68,NE,45,0.0,0.0,96,0.00,,---,0.00,VWS V14.01,2013-05-21 12:15:00,
2013-05-21 08:19:00,59.5,58.4,29.68,NE,45,0.0,0.0,96,0.00,,---,0.00,VWS V14.01,2013-05-21 12:19:00,
2013-05-21 08:24:00,59.5,58.4,29.68,NE,45,0.0,1.1,96,0.00,,---,0.00,VWS V14.01,2013-05-21 12:24:00,
2013-05-21 08:29:00,59.7,58.6,29.68,NE,45,0.0,0.0,96,0.00,,---,0.00,VWS V14.01,2013-05-21 12:29:00,
2013-05-21 08:34:00,60.1,58.9,29.68,NE,45,0.0,0.0,96,0.00,,---,0.00,VWS V14.01,2013-05-21 12:34:00,
2013-05-21 08:39:00,60.1,58.9,29.68,NE,45,0.0,1.3,96,0.00,,---,0.00,VWS V14.01,2013-05-21 12:39:00,
2013-05-21 08:44:00,60.3,59.1,29.68,NE,45,0.0,0.9,96,0.00,,---,0.00,VWS V14.01,2013-05-21 12:44:00,
2013-05-21 08:49:00,60.3,58.8,29.68,NE,45,0.0,0.0,95,0.00,,---,0.00,VWS V14.01,2013-05-21 12:49:00,
2013-05-21 08:54:00,60.4,59.0,29.65,NE,45,0.0,0.9,95,0.00,,---,0.00,VWS V14.01,2013-05-21 12:54:00,
2013-05-21 08:59:00,60.4,59.0,29.65,NE,45,0.0,0.0,95,0.00,,---,0.00,VWS V14.01,2013-05-21 12:59:00,
2013-05-21 09:04:00,61.0,59.5,29.65,NE,45,0.0,0.0,95,0.00,,---,0.00,VWS V14.01,2013-05-21 13:04:00,
2013-05-21 09:09:00,61.0,59.2,29.65,NE,45,1.6,1.6,94,0.00,,---,0.00,VWS V14.01,2013-05-21 13:09:00,
2013-05-21 09:14:00,61.2,59.4,29.65,NE,45,0.0,1.1,94,0.00,,---,0.00,VWS V14.01,2013-05-21 13:14:00,
2013-05-21 09:19:00,61.3,59.6,29.65,NE,45,0.0,1.1,94,0.00,,---,0.00,VWS V14.01,2013-05-21 13:19:00,
2013-05-21 09:24:00,61.3,59.6,29.68,NE,45,0.0,0.0,94,0.00,,---,0.00,VWS V14.01,2013-05-21 13:24:00,
2013-05-21 09:29:00,61.5,59.5,29.68,NE,45,0.0,0.9,93,0.00,,---,0.00,VWS V14.01,2013-05-21 13:29:00,
2013-05-21 09:34:00,61.7,59.7,29.68,NE,45,0.0,0.9,93,0.00,,---,0.00,VWS V14.01,2013-05-21 13:34:00,
2013-05-21 09:39:00,61.9,59.8,29.68,NE,45,0.0,1.1,93,0.00,,---,0.00,VWS V14.01,2013-05-21 13:39:00,
2013-05-21 09:44:00,62.1,60.0,29.68,WNW,292,1.1,2.2,93,0.00,,---,0.00,VWS V14.01,2013-05-21 13:44:00,
2013-05-21 09:49:00,62.2,60.2,29.68,NNE,22,1.1,1.1,93,0.00,,---,0.00,VWS V14.01,2013-05-21 13:49:00,
2013-05-21 09:54:00,62.6,60.5,29.68,NNE,22,0.0,0.9,93,0.00,,---,0.00,VWS V14.01,2013-05-21 13:54:00,
2013-05-21 09:59:00,62.6,60.2,29.68,SW,225,1.1,2.0,92,0.00,,---,0.00,VWS V14.01,2013-05-21 13:59:00,
2013-05-21 10:04:00,62.6,60.2,29.68,South,180,0.0,1.1,92,0.00,,---,0.00,VWS V14.01,2013-05-21 14:04:00,
2013-05-21 10:09:00,63.1,60.8,29.68,SE,135,0.9,1.3,92,0.00,,---,0.00,VWS V14.01,2013-05-21 14:09:00,
2013-05-21 10:14:00,63.3,61.0,29.68,SSE,158,1.1,1.1,92,0.00,,---,0.00,VWS V14.01,2013-05-21 14:14:00,
2013-05-21 10:19:00,63.0,60.6,29.68,SE,135,2.2,2.2,92,0.00,,---,0.00,VWS V14.01,2013-05-21 14:19:00,
2013-05-21 10:24:00,64.8,62.4,29.65,SE,135,0.9,1.1,92,0.00,,---,0.00,VWS V14.01,2013-05-21 14:24:00,
2013-05-21 10:29:00,65.1,62.1,29.65,WNW,292,2.0,2.0,90,0.00,,---,0.00,VWS V14.01,2013-05-21 14:29:00,
2013-05-21 10:34:00,65.8,62.8,29.65,SE,135,1.1,1.3,90,0.00,,---,0.00,VWS V14.01,2013-05-21 14:34:00,
2013-05-21 10:39:00,65.7,62.0,29.65,WNW,292,0.0,2.2,88,0.00,,---,0.00,VWS V14.01,2013-05-21 14:39:00,
2013-05-21 10:44:00,65.7,62.0,29.65,East,90,0.0,0.0,88,0.00,,---,0.00,VWS V14.01,2013-05-21 14:44:00,
2013-05-21 10:49:00,66.7,62.8,29.65,NW,315,0.0,0.0,87,0.00,,---,0.00,VWS V14.01,2013-05-21 14:49:00,
2013-05-21 10:54:00,65.8,61.5,29.68,NE,45,3.1,3.4,86,0.00,,---,0.00,VWS V14.01,2013-05-21 14:54:00,
2013-05-21 10:59:00,64.8,60.5,29.68,ESE,112,1.1,1.6,86,0.00,,---,0.00,VWS V14.01,2013-05-21 14:59:00,
2013-05-21 11:04:00,64.0,60.7,29.68,NW,315,0.0,0.9,89,0.00,,---,0.00,VWS V14.01,2013-05-21 15:04:00,
2013-05-21 11:09:00,63.9,60.9,29.68,ENE,68,0.9,1.3,90,0.04,,---,0.04,VWS V14.01,2013-05-21 15:09:00,
2013-05-21 11:14:00,64.4,61.4,29.68,ENE,68,0.0,0.9,90,0.04,,---,0.04,VWS V14.01,2013-05-21 15:14:00,
2013-05-21 11:19:00,64.8,62.1,29.68,North,0,1.3,1.3,91,0.04,,---,0.04,VWS V14.01,2013-05-21 15:19:00,
2013-05-21 11:24:00,65.3,62.6,29.68,ENE,68,0.0,0.0,91,0.04,,---,0.04,VWS V14.01,2013-05-21 15:24:00,
2013-05-21 11:29:00,67.1,64.4,29.68,ENE,68,0.0,1.1,91,0.04,,---,0.04,VWS V14.01,2013-05-21 15:29:00,
2013-05-21 11:34:00,68.2,64.8,29.68,East,90,0.0,1.1,89,0.04,,---,0.04,VWS V14.01,2013-05-21 15:34:00,
2013-05-21 11:39:00,70.3,66.3,29.65,East,90,0.9,1.6,87,0.04,,---,0.04,VWS V14.01,2013-05-21 15:39:00,
2013-05-21 11:44:00,71.8,66.7,29.65,ESE,112,1.3,1.3,84,0.04,,---,0.04,VWS V14.01,2013-05-21 15:44:00,
2013-05-21 11:49:00,72.5,66.0,29.65,East,90,0.0,0.0,80,0.04,,---,0.04,VWS V14.01,2013-05-21 15:49:00,
2013-05-21 11:54:00,73.9,66.7,29.65,East,90,1.3,2.5,78,0.04,,---,0.04,VWS V14.01,2013-05-21 15:54:00,
2013-05-21 11:59:00,73.9,65.9,29.65,East,90,0.0,0.9,76,0.04,,---,0.04,VWS V14.01,2013-05-21 15:59:00,
2013-05-21 12:04:00,76.1,67.6,29.65,East,90,1.3,1.3,75,0.04,,---,0.04,VWS V14.01,2013-05-21 16:04:00,
2013-05-21 12:09:00,75.0,65.0,29.62,NW,315,1.6,1.6,71,0.00,,---,0.04,VWS V14.01,2013-05-21 16:09:00,
2013-05-21 12:14:00,73.8,65.0,29.62,SE,135,1.3,2.0,74,0.00,,---,0.04,VWS V14.01,2013-05-21 16:14:00,
2013-05-21 12:19:00,73.8,63.4,29.62,SE,135,0.0,0.0,70,0.00,,---,0.04,VWS V14.01,2013-05-21 16:19:00,
2013-05-21 12:24:00,74.1,63.7,29.59,East,90,1.1,1.6,70,0.00,,---,0.04,VWS V14.01,2013-05-21 16:24:00,
2013-05-21 12:29:00,76.3,65.8,29.59,East,90,0.0,0.0,70,0.00,,---,0.04,VWS V14.01,2013-05-21 16:29:00,
2013-05-21 12:34:00,77.0,66.1,29.59,East,90,2.2,2.2,69,0.00,,---,0.04,VWS V14.01,2013-05-21 16:34:00,
2013-05-21 12:39:00,76.8,65.5,29.62,ESE,112,0.0,0.9,68,0.00,,---,0.04,VWS V14.01,2013-05-21 16:39:00,
2013-05-21 12:44:00,76.6,64.0,29.62,East,90,2.7,2.9,65,0.00,,---,0.00,VWS V14.01,2013-05-21 16:44:00,
2013-05-21 12:49:00,76.1,63.5,29.62,SE,135,1.6,3.1,65,0.00,,---,0.04,VWS V14.01,2013-05-21 16:49:00,
2013-05-21 12:54:00,75.7,62.3,29.62,East,90,2.5,2.5,63,0.00,,---,0.04,VWS V14.01,2013-05-21 16:54:00,
2013-05-21 12:59:00,74.8,61.4,29.62,East,90,2.9,3.1,63,0.00,,---,0.04,VWS V14.01,2013-05-21 16:59:00,
2013-05-21 13:04:00,75.7,62.3,29.62,East,90,3.1,3.1,63,0.00,,---,0.04,VWS V14.01,2013-05-21 17:04:00,
2013-05-21 13:09:00,73.6,59.8,29.65,East,90,3.6,3.6,62,0.00,,---,0.04,VWS V14.01,2013-05-21 17:09:00,
2013-05-21 13:14:00,71.6,60.1,29.65,East,90,0.9,0.9,67,0.00,,---,0.04,VWS V14.01,2013-05-21 17:14:00,
2013-05-21 13:19:00,71.6,60.1,29.65,West,270,0.9,3.1,67,0.00,,---,0.04,VWS V14.01,2013-05-21 17:19:00,
2013-05-21 13:24:00,69.8,59.2,29.65,East,90,2.5,3.4,69,0.00,,---,0.04,VWS V14.01,2013-05-21 17:24:00,
2013-05-21 13:29:00,68.9,58.7,29.65,East,90,0.9,2.2,70,0.00,,---,0.04,VWS V14.01,2013-05-21 17:29:00,
2013-05-21 13:34:00,67.1,57.8,29.65,East,90,3.1,3.1,72,0.00,,---,0.04,VWS V14.01,2013-05-21 17:34:00,
2013-05-21 13:39:00,66.7,58.6,29.65,NE,45,0.0,0.0,75,0.00,,---,0.04,VWS V14.01,2013-05-21 17:39:00,
2013-05-21 13:44:00,66.7,58.6,29.65,East,90,1.6,2.0,75,0.00,,---,0.04,VWS V14.01,2013-05-21 17:44:00,
2013-05-21 13:49:00,65.8,57.7,29.65,East,90,3.1,3.4,75,0.00,,---,0.04,VWS V14.01,2013-05-21 17:49:00,
2013-05-21 13:54:00,65.7,57.9,29.65,South,180,2.0,2.0,76,0.00,,---,0.04,VWS V14.01,2013-05-21 17:54:00,
2013-05-21 13:59:00,65.3,57.5,29.65,East,90,2.5,2.5,76,0.00,,---,0.04,VWS V14.01,2013-05-21 17:59:00,
2013-05-21 14:04:00,65.5,58.5,29.65,East,90,2.0,2.0,78,0.00,,---,0.04,VWS V14.01,2013-05-21 18:04:00,
2013-05-21 14:09:00,65.7,58.3,29.68,East,90,2.0,2.0,77,0.00,,---,0.04,VWS V14.01,2013-05-21 18:09:00,
2013-05-21 14:14:00,66.0,58.2,29.68,East,90,2.5,2.5,76,0.00,,---,0.04,VWS V14.01,2013-05-21 18:14:00,
2013-05-21 14:19:00,66.0,57.9,29.68,East,90,2.9,2.9,75,0.00,,---,0.04,VWS V14.01,2013-05-21 18:19:00,
2013-05-21 14:24:00,66.6,58.4,29.68,East,90,2.7,3.1,75,0.00,,---,0.04,VWS V14.01,2013-05-21 18:24:00,
2013-05-21 14:29:00,66.7,57.4,29.68,SE,135,3.4,3.8,72,0.00,,---,0.04,VWS V14.01,2013-05-21 18:29:00,
2013-05-21 14:34:00,66.9,57.6,29.68,South,180,0.0,2.0,72,0.00,,---,0.04,VWS V14.01,2013-05-21 18:34:00,
2013-05-21 14:38:00,66.6,56.9,29.68,East,90,1.3,1.3,71,0.00,,---,0.04,VWS V14.01,2013-05-21 18:38:00,
2013-05-21 14:43:00,66.0,56.4,29.68,NE,45,0.0,3.1,71,0.00,,---,0.04,VWS V14.01,2013-05-21 18:43:00,
2013-05-21 14:48:00,66.6,57.3,29.68,ESE,112,2.5,2.5,72,0.00,,---,0.04,VWS V14.01,2013-05-21 18:48:00,
2013-05-21 14:53:00,66.2,56.5,29.65,East,90,1.3,5.4,71,0.00,,---,0.04,VWS V14.01,2013-05-21 18:53:00,
2013-05-21 14:58:00,65.8,56.2,29.65,East,90,2.5,2.7,71,0.00,,---,0.04,VWS V14.01,2013-05-21 18:58:00,
2013-05-21 15:03:00,66.2,56.5,29.65,East,90,2.0,2.5,71,0.00,,---,0.04,VWS V14.01,2013-05-21 19:03:00,
2013-05-21 15:08:00,65.7,55.6,29.68,East,90,2.5,2.7,70,0.00,,---,0.04,VWS V14.01,2013-05-21 19:08:00,
2013-05-21 15:13:00,65.3,55.7,29.68,East,90,2.0,2.7,71,0.00,,---,0.04,VWS V14.01,2013-05-21 19:13:00,
2013-05-21 15:18:00,64.2,54.6,29.68,East,90,5.4,5.4,71,0.00,,---,0.04,VWS V14.01,2013-05-21 19:18:00,
2013-05-21 15:23:00,63.3,54.2,29.68,West,270,1.3,2.9,72,0.00,,---,0.04,VWS V14.01,2013-05-21 19:23:00,
2013-05-21 15:28:00,62.8,53.6,29.68,East,90,1.3,2.7,72,0.00,,---,0.04,VWS V14.01,2013-05-21 19:28:00,
2013-05-21 15:33:00,61.9,53.1,29.68,East,90,2.5,3.8,73,0.00,,---,0.04,VWS V14.01,2013-05-21 19:33:00,
2013-05-21 15:38:00,61.3,53.4,29.68,South,180,2.9,2.9,75,0.00,,---,0.04,VWS V14.01,2013-05-21 19:38:00,
2013-05-21 15:43:00,60.6,52.7,29.68,East,90,2.5,2.5,75,0.00,,---,0.04,VWS V14.01,2013-05-21 19:43:00,
2013-05-21 15:48:00,59.9,53.0,29.68,East,90,3.4,3.4,78,0.00,,---,0.04,VWS V14.01,2013-05-21 19:48:00,
2013-05-21 15:53:00,59.5,52.7,29.71,WNW,292,2.9,4.5,78,0.00,,---,0.04,VWS V14.01,2013-05-21 19:53:00,
2013-05-21 15:58:00,59.0,52.5,29.71,West,270,2.5,2.7,79,0.00,,---,0.04,VWS V14.01,2013-05-21 19:58:00,
2013-05-21 16:03:00,58.6,52.5,29.71,East,90,2.5,2.7,80,0.00,,---,0.04,VWS V14.01,2013-05-21 20:03:00,
2013-05-21 16:08:00,58.5,52.3,29.68,NNW,338,4.9,4.9,80,0.00,,---,0.04,VWS V14.01,2013-05-21 20:08:00,
2013-05-21 16:13:00,58.1,52.3,29.68,NE,45,3.4,3.4,81,0.00,,---,0.04,VWS V14.01,2013-05-21 20:13:00,
2013-05-21 16:18:00,57.9,52.1,29.68,ESE,112,2.0,3.4,81,0.00,,---,0.04,VWS V14.01,2013-05-21 20:18:00,
2013-05-21 16:23:00,57.6,52.1,29.68,East,90,2.7,2.7,82,0.00,,---,0.04,VWS V14.01,2013-05-21 20:23:00,
2013-05-21 16:28:00,57.0,51.6,29.68,East,90,4.0,4.0,82,0.00,,---,0.04,VWS V14.01,2013-05-21 20:28:00,
2013-05-21 16:33:00,56.8,51.7,29.68,East,90,2.2,2.5,83,0.00,,---,0.04,VWS V14.01,2013-05-21 20:33:00,
2013-05-21 16:38:00,56.8,52.1,29.68,East,90,2.7,2.7,84,0.00,,---,0.04,VWS V14.01,2013-05-21 20:38:00,
2013-05-21 16:43:00,56.7,51.6,29.68,ESE,112,2.0,2.0,83,0.00,,---,0.04,VWS V14.01,2013-05-21 20:43:00,
2013-05-21 16:48:00,56.1,51.4,29.68,East,90,3.1,4.7,84,0.00,,---,0.04,VWS V14.01,2013-05-21 20:48:00,
2013-05-21 16:53:00,55.8,51.0,29.65,East,90,4.3,4.3,84,0.00,,---,0.04,VWS V14.01,2013-05-21 20:53:00,
2013-05-21 16:58:00,55.4,50.7,29.65,East,90,1.1,3.6,84,0.00,,---,0.04,VWS V14.01,2013-05-21 20:58:00,
2013-05-21 17:03:00,55.4,51.0,29.65,SE,135,0.0,1.6,85,0.00,,---,0.04,VWS V14.01,2013-05-21 21:03:00,
2013-05-21 17:08:00,55.4,51.0,29.68,East,90,1.1,2.2,85,0.00,,---,0.04,VWS V14.01,2013-05-21 21:08:00,
2013-05-21 17:13:00,55.4,51.0,29.68,SE,135,1.3,2.0,85,0.00,,---,0.04,VWS V14.01,2013-05-21 21:13:00,
2013-05-21 17:18:00,55.2,50.8,29.68,East,90,1.1,2.0,85,0.00,,---,0.04,VWS V14.01,2013-05-21 21:18:00,
2013-05-21 17:23:00,55.0,50.6,29.68,SSE,158,1.6,1.6,85,0.00,,---,0.04,VWS V14.01,2013-05-21 21:23:00,
2013-05-21 17:28:00,54.5,50.1,29.68,SSE,158,1.1,3.1,85,0.00,,---,0.04,VWS V14.01,2013-05-21 21:28:00,
2013-05-21 17:33:00,54.3,50.2,29.68,SE,135,0.9,2.7,86,0.00,,---,0.04,VWS V14.01,2013-05-21 21:33:00,
2013-05-21 17:38:00,54.0,50.2,29.68,East,90,1.6,2.9,87,0.00,,---,0.04,VWS V14.01,2013-05-21 21:38:00,
2013-05-21 17:43:00,53.6,49.8,29.68,SE,135,0.9,3.4,87,0.00,,---,0.04,VWS V14.01,2013-05-21 21:43:00,
2013-05-21 17:48:00,53.4,50.0,29.68,SE,135,2.2,2.5,88,0.00,,---,0.04,VWS V14.01,2013-05-21 21:48:00,
2013-05-21 17:53:00,53.2,50.1,29.68,SSE,158,1.6,3.4,89,0.00,,---,0.04,VWS V14.01,2013-05-21 21:53:00,
2013-05-21 17:58:00,53.1,49.9,29.68,ENE,68,1.1,2.0,89,0.00,,---,0.04,VWS V14.01,2013-05-21 21:58:00,
2013-05-21 18:03:00,53.1,49.9,29.68,East,90,1.1,1.6,89,0.00,,---,0.04,VWS V14.01,2013-05-21 22:03:00,
2013-05-21 18:08:00,52.7,49.8,29.68,NE,45,2.9,2.9,90,0.00,,---,0.04,VWS V14.01,2013-05-21 22:08:00,
2013-05-21 18:13:00,52.5,50.0,29.71,East,90,1.6,1.6,91,0.00,,---,0.04,VWS V14.01,2013-05-21 22:13:00,
2013-05-21 18:18:00,52.5,50.0,29.71,SSE,158,0.9,1.1,91,0.00,,---,0.04,VWS V14.01,2013-05-21 22:18:00,
2013-05-21 18:23:00,52.5,50.0,29.71,East,90,2.5,2.5,91,0.00,,---,0.04,VWS V14.01,2013-05-21 22:23:00,
2013-05-21 18:28:00,52.2,49.6,29.74,East,90,2.7,2.7,91,0.00,,---,0.04,VWS V14.01,2013-05-21 22:28:00,
2013-05-21 18:33:00,52.2,49.9,29.74,East,90,1.1,1.3,92,0.00,,---,0.04,VWS V14.01,2013-05-21 22:33:00,
2013-05-21 18:38:00,52.0,49.7,29.74,East,90,2.2,2.7,92,0.00,,---,0.04,VWS V14.01,2013-05-21 22:38:00,
2013-05-21 18:43:00,51.8,49.5,29.71,SE,135,2.9,2.9,92,0.00,,---,0.04,VWS V14.01,2013-05-21 22:43:00,
2013-05-21 18:48:00,51.8,49.5,29.71,WNW,292,0.9,1.1,92,0.00,,---,0.04,VWS V14.01,2013-05-21 22:48:00,
2013-05-21 18:53:00,51.6,49.7,29.71,East,90,1.1,1.1,93,0.00,,---,0.04,VWS V14.01,2013-05-21 22:53:00,
2013-05-21 18:58:00,51.4,49.5,29.74,SE,135,1.3,1.3,93,0.00,,---,0.04,VWS V14.01,2013-05-21 22:58:00,
2013-05-21 19:03:00,51.4,49.8,29.74,SW,225,0.0,2.9,94,0.00,,---,0.04,VWS V14.01,2013-05-21 23:03:00,
2013-05-21 19:08:00,51.3,49.6,29.74,ESE,112,2.2,2.7,94,0.00,,---,0.04,VWS V14.01,2013-05-21 23:08:00,
2013-05-21 19:13:00,51.3,49.6,29.74,East,90,0.0,1.1,94,0.00,,---,0.04,VWS V14.01,2013-05-21 23:13:00,
2013-05-21 19:18:00,50.9,49.2,29.74,East,90,2.7,2.7,94,0.00,,---,0.04,VWS V14.01,2013-05-21 23:18:00,
2013-05-21 19:23:00,50.7,49.1,29.74,East,90,2.5,2.5,94,0.00,,---,0.04,VWS V14.01,2013-05-21 23:23:00,
2013-05-21 19:28:00,50.7,49.1,29.74,East,90,0.0,0.0,94,0.00,,---,0.04,VWS V14.01,2013-05-21 23:28:00,
2013-05-21 19:33:00,50.7,49.1,29.74,East,90,1.1,1.3,94,0.00,,---,0.04,VWS V14.01,2013-05-21 23:33:00,
2013-05-21 19:38:00,50.7,49.1,29.74,East,90,1.1,1.3,94,0.00,,---,0.04,VWS V14.01,2013-05-21 23:38:00,
2013-05-21 19:43:00,50.5,48.9,29.74,SE,135,1.1,1.1,94,0.00,,---,0.04,VWS V14.01,2013-05-21 23:43:00,
2013-05-21 19:48:00,50.4,49.0,29.74,SSE,158,1.6,4.9,95,0.00,,---,0.04,VWS V14.01,2013-05-21 23:48:00,
2013-05-21 19:53:00,50.4,49.0,29.74,West,270,0.0,0.0,95,0.00,,---,0.04,VWS V14.01,2013-05-21 23:53:00,
2013-05-21 19:58:00,50.4,49.0,29.76,East,90,2.0,2.0,95,0.00,,---,0.04,VWS V14.01,2013-05-21 23:58:00,
2013-05-21 20:03:00,50.4,49.0,29.76,East,90,1.3,1.3,95,0.00,,---,0.04,VWS V14.01,2013-05-22 00:03:00,
2013-05-21 20:08:00,50.4,49.0,29.76,NE,45,0.0,0.0,95,0.00,,---,0.04,VWS V14.01,2013-05-22 00:08:00,
2013-05-21 20:13:00,50.4,49.3,29.71,East,90,1.6,1.6,96,0.00,,---,0.04,VWS V14.01,2013-05-22 00:13:00,
2013-05-21 20:18:00,50.4,49.3,29.71,SE,135,2.0,2.0,96,0.00,,---,0.04,VWS V14.01,2013-05-22 00:18:00,
2013-05-21 20:23:00,50.4,49.3,29.71,South,180,1.6,1.6,96,0.00,,---,0.04,VWS V14.01,2013-05-22 00:23:00,
2013-05-21 20:28:00,50.4,49.3,29.74,SE,135,0.0,0.9,96,0.00,,---,0.04,VWS V14.01,2013-05-22 00:28:00,
2013-05-21 20:33:00,50.0,48.9,29.74,SW,225,0.0,0.0,96,0.00,,---,0.04,VWS V14.01,2013-05-22 00:33:00,
2013-05-21 20:38:00,50.0,48.9,29.74,SSE,158,2.0,2.0,96,0.00,,---,0.04,VWS V14.01,2013-05-22 00:38:00,
2013-05-21 20:43:00,50.0,48.9,29.74,East,90,1.6,1.6,96,0.00,,---,0.04,VWS V14.01,2013-05-22 00:43:00,
2013-05-21 20:48:00,50.0,48.9,29.74,SE,135,0.0,0.0,96,0.00,,---,0.04,VWS V14.01,2013-05-22 00:48:00,
2013-05-21 20:53:00,50.0,48.9,29.74,NW,315,0.9,0.9,96,0.00,,---,0.04,VWS V14.01,2013-05-22 00:53:00,
2013-05-21 20:58:00,50.0,48.9,29.74,East,90,2.0,2.0,96,0.00,,---,0.04,VWS V14.01,2013-05-22 00:58:00,
2013-05-21 21:03:00,50.0,48.9,29.74,East,90,1.1,1.3,96,0.00,,---,0.04,VWS V14.01,2013-05-22 01:03:00,
2013-05-21 21:08:00,49.8,48.7,29.74,East,90,0.9,1.3,96,0.00,,---,0.04,VWS V14.01,2013-05-22 01:08:00,
2013-05-21 21:12:00,49.8,48.7,29.74,East,90,0.0,1.3,96,0.00,,---,0.04,VWS V14.01,2013-05-22 01:12:00,
2013-05-21 21:17:00,49.8,48.7,29.74,North,0,0.0,1.6,96,0.00,,---,0.04,VWS V14.01,2013-05-22 01:17:00,
2013-05-21 21:22:00,49.6,48.8,29.74,SE,135,0.0,2.5,97,0.00,,---,0.04,VWS V14.01,2013-05-22 01:22:00,
2013-05-21 21:27:00,49.6,48.8,29.71,NW,315,1.3,1.3,97,0.00,,---,0.04,VWS V14.01,2013-05-22 01:27:00,
2013-05-21 21:32:00,49.6,48.8,29.71,East,90,1.3,1.3,97,0.00,,---,0.04,VWS V14.01,2013-05-22 01:32:00,
2013-05-21 21:37:00,49.6,48.8,29.71,East,90,1.6,1.6,97,0.00,,---,0.04,VWS V14.01,2013-05-22 01:37:00,
2013-05-21 21:42:00,49.6,48.8,29.71,SE,135,0.0,1.1,97,0.00,,---,0.04,VWS V14.01,2013-05-22 01:42:00,
2013-05-21 21:47:00,49.6,48.8,29.71,WNW,292,0.9,2.9,97,0.00,,---,0.04,VWS V14.01,2013-05-22 01:47:00,
2013-05-21 21:52:00,49.6,49.1,29.71,East,90,2.2,2.2,98,0.00,,---,0.04,VWS V14.01,2013-05-22 01:52:00,
2013-05-21 21:57:00,49.5,48.9,29.71,East,90,1.1,1.3,98,0.00,,---,0.04,VWS V14.01,2013-05-22 01:57:00,
2013-05-21 22:02:00,49.6,49.1,29.71,East,90,0.0,0.9,98,0.00,,---,0.04,VWS V14.01,2013-05-22 02:02:00,
2013-05-21 22:07:00,49.6,49.1,29.71,SE,135,0.0,1.3,98,0.00,,---,0.04,VWS V14.01,2013-05-22 02:07:00,
2013-05-21 22:12:00,49.6,49.1,29.74,East,90,0.0,0.0,98,0.00,,---,0.04,VWS V14.01,2013-05-22 02:12:00,
2013-05-21 22:17:00,49.6,49.1,29.74,East,90,1.1,1.3,98,0.00,,---,0.04,VWS V14.01,2013-05-22 02:17:00,
2013-05-21 22:22:00,49.5,48.9,29.74,East,90,0.0,0.9,98,0.00,,---,0.04,VWS V14.01,2013-05-22 02:22:00,
2013-05-21 22:27:00,49.5,48.9,29.71,East,90,0.0,1.3,98,0.00,,---,0.04,VWS V14.01,2013-05-22 02:27:00,
2013-05-21 22:32:00,49.5,48.9,29.71,East,90,0.0,1.3,98,0.00,,---,0.04,VWS V14.01,2013-05-22 02:32:00,
2013-05-21 22:37:00,49.5,48.9,29.71,East,90,2.7,2.7,98,0.00,,---,0.04,VWS V14.01,2013-05-22 02:37:00,
2013-05-21 22:42:00,49.5,48.9,29.71,ESE,112,0.9,1.1,98,0.00,,---,0.04,VWS V14.01,2013-05-22 02:42:00,
2013-05-21 22:47:00,49.5,48.9,29.71,East,90,2.5,2.5,98,0.00,,---,0.04,VWS V14.01,2013-05-22 02:47:00,
2013-05-21 22:52:00,49.5,48.9,29.71,East,90,1.3,1.3,98,0.00,,---,0.04,VWS V14.01,2013-05-22 02:52:00,
2013-05-21 22:57:00,49.3,48.7,29.68,NW,315,1.1,1.1,98,0.00,,---,0.04,VWS V14.01,2013-05-22 02:57:00,
2013-05-21 23:02:00,49.3,48.7,29.68,East,90,1.3,1.3,98,0.00,,---,0.04,VWS V14.01,2013-05-22 03:02:00,
2013-05-21 23:07:00,49.5,48.9,29.68,South,180,0.0,0.0,98,0.00,,---,0.04,VWS V14.01,2013-05-22 03:07:00,
2013-05-21 23:12:00,49.6,49.1,29.74,South,180,2.0,2.2,98,0.00,,---,0.04,VWS V14.01,2013-05-22 03:12:00,
2013-05-21 23:17:00,49.6,49.1,29.74,East,90,1.6,3.6,98,0.00,,---,0.04,VWS V14.01,2013-05-22 03:17:00,
2013-05-21 23:22:00,49.6,49.1,29.74,East,90,2.7,2.7,98,0.00,,---,0.04,VWS V14.01,2013-05-22 03:22:00,
2013-05-21 23:27:00,49.6,49.1,29.74,East,90,0.9,3.4,98,0.00,,---,0.04,VWS V14.01,2013-05-22 03:27:00,
2013-05-21 23:32:00,49.5,48.9,29.74,SE,135,4.0,4.0,98,0.00,,---,0.04,VWS V14.01,2013-05-22 03:32:00,
2013-05-21 23:37:00,49.5,48.9,29.74,East,90,0.9,2.7,98,0.00,,---,0.04,VWS V14.01,2013-05-22 03:37:00,
2013-05-21 23:42:00,49.3,48.7,29.74,East,90,0.0,2.7,98,0.00,,---,0.04,VWS V14.01,2013-05-22 03:42:00,
2013-05-21 23:47:00,49.3,48.7,29.74,East,90,1.3,2.2,98,0.00,,---,0.04,VWS V14.01,2013-05-22 03:47:00,
2013-05-21 23:52:00,49.3,48.7,29.74,ESE,112,1.6,1.6,98,0.00,,---,0.04,VWS V14.01,2013-05-22 03:52:00,
2013-05-21 23:57:00,49.3,48.7,29.71,East,90,0.0,0.0,98,0.00,,---,0.04,VWS V14.01,2013-05-22 03:57:00,